Time,TemperatureF,DewpointF,PressureIn,WindDirection,WindDirectionDegrees,WindSpeedMPH,WindSpeedGustMPH,Humidity,HourlyPrecipIn,Conditions,Clouds,dailyrainin,SoftwareType,DateUTC
2013-02-19 00:23:00,29.0,-99.9,-100.00,SW,226,-999.0,-999.0,-999,-99.99,,,-99.99,,2013-02-19 05:23:00,
2013-02-19 00:33:00,29.0,-99.9,-100.00,SW,226,-999.0,-999.0,-999,-99.99,,,-99.99,,2013-02-19 05:33:00,
2013-02-19 00:43:00,29.0,-99.9,-100.00,SW,226,-999.0,-999.0,-999,-99.99,,,-99.99,,2013-02-19 05:43:00,
2013-02-19 00:52:00,31.0,-99.9,-100.00,SW,229,-999.0,6.0,-999,-99.99,,,-99.99,,2013-02-19 05:52:00,
2013-02-19 01:33:00,31.0,-99.9,-100.00,SW,229,-999.0,6.0,-999,-99.99,,,-99.99,,2013-02-19 06:33:00,
2013-02-19 01:42:00,31.0,-99.9,-100.00,SW,229,-999.0,6.0,-999,-99.99,,,-99.99,,2013-02-19 06:42:00,
2013-02-19 01:52:00,31.0,-99.9,-100.00,WSW,245,-999.0,-999.0,-999,-99.99,,,-99.99,,2013-02-19 06:52:00,
2013-02-19 02:22:00,31.0,-99.9,-100.00,WSW,245,-999.0,-999.0,-999,-99.99,,,-99.99,,2013-02-19 07:22:00,
2013-02-19 02:33:00,31.0,-99.9,-100.00,WSW,245,-999.0,-999.0,-999,-99.99,,,-99.99,,2013-02-19 07:33:00,
2013-02-19 02:42:00,31.0,-99.9,-100.00,WSW,245,-999.0,-999.0,-999,-99.99,,,-99.99,,2013-02-19 07:42:00,
2013-02-19 02:52:00,32.0,-99.9,-100.00,SW,220,-999.0,5.0,-999,-99.99,,,-99.99,,2013-02-19 07:52:00,
2013-02-19 03:22:00,32.0,-99.9,-100.00,SW,220,-999.0,5.0,-999,-99.99,,,-99.99,,2013-02-19 08:22:00,
2013-02-19 03:32:00,32.0,-99.9,-100.00,SW,220,-999.0,5.0,-999,-99.99,,,-99.99,,2013-02-19 08:32:00,
2013-02-19 03:42:00,32.0,-99.9,-100.00,SW,220,-999.0,5.0,-999,-99.99,,,-99.99,,2013-02-19 08:42:00,
2013-02-19 03:52:00,34.0,-99.9,-100.00,SSW,199,-999.0,6.0,-999,-99.99,,,-99.99,,2013-02-19 08:52:00,
2013-02-19 04:22:00,34.0,-99.9,-100.00,SSW,199,-999.0,6.0,-999,-99.99,,,-99.99,,2013-02-19 09:22:00,
2013-02-19 04:32:00,34.0,-99.9,-100.00,SSW,199,-999.0,6.0,-999,-99.99,,,-99.99,,2013-02-19 09:32:00,
2013-02-19 04:42:00,34.0,-99.9,-100.00,SSW,199,-999.0,6.0,-999,-99.99,,,-99.99,,2013-02-19 09:42:00,
2013-02-19 04:52:00,34.0,-99.9,-100.00,SW,225,-999.0,-999.0,-999,-99.99,,,-99.99,,2013-02-19 09:52:00,
2013-02-19 05:22:00,34.0,-99.9,-100.00,SW,225,-999.0,-999.0,-999,-99.99,,,-99.99,,2013-02-19 10:22:00,
2013-02-19 05:32:00,34.0,-99.9,-100.00,SW,225,-999.0,-999.0,-999,-99.99,,,-99.99,,2013-02-19 10:32:00,
2013-02-19 05:42:00,34.0,-99.9,-100.00,SW,225,-999.0,-999.0,-999,-99.99,,,-99.99,,2013-02-19 10:42:00,
2013-02-19 05:52:00,35.0,-99.9,-100.00,WSW,243,3.0,11.0,-999,-99.99,,,-99.99,,2013-02-19 10:52:00,
2013-02-19 06:22:00,35.0,-99.9,-100.00,WSW,243,3.0,11.0,-999,-99.99,,,-99.99,,2013-02-19 11:22:00,
2013-02-19 06:32:00,35.0,-99.9,-100.00,WSW,243,3.0,11.0,-999,-99.99,,,-99.99,,2013-02-19 11:32:00,
2013-02-19 06:42:00,35.0,-99.9,-100.00,WSW,243,3.0,11.0,-999,-99.99,,,-99.99,,2013-02-19 11:42:00,
2013-02-19 06:52:00,36.0,-99.9,-100.00,South,188,-999.0,11.0,-999,-99.99,,,-99.99,,2013-02-19 11:52:00,
2013-02-19 07:22:00,36.0,-99.9,-100.00,South,188,-999.0,11.0,-999,-99.99,,,-99.99,,2013-02-19 12:22:00,
2013-02-19 07:33:00,36.0,-99.9,-100.00,South,188,-999.0,11.0,-999,-99.99,,,-99.99,,2013-02-19 12:33:00,
2013-02-19 07:42:00,36.0,-99.9,-100.00,South,188,-999.0,11.0,-999,-99.99,,,-99.99,,2013-02-19 12:42:00,
2013-02-19 07:52:00,38.0,-99.9,-100.00,SW,218,11.0,12.0,-999,-99.99,,,-99.99,,2013-02-19 12:52:00,
2013-02-19 08:22:00,38.0,-99.9,-100.00,SW,218,11.0,12.0,-999,-99.99,,,-99.99,,2013-02-19 13:22:00,
2013-02-19 08:32:00,38.0,-99.9,-100.00,SW,218,11.0,12.0,-999,-99.99,,,-99.99,,2013-02-19 13:32:00,
2013-02-19 08:42:00,38.0,-99.9,-100.00,SW,218,11.0,12.0,-999,-99.99,,,-99.99,,2013-02-19 13:42:00,
2013-02-19 08:52:00,39.0,-99.9,-100.00,SSW,208,7.0,13.0,-999,-99.99,,,-99.99,,2013-02-19 13:52:00,
2013-02-19 09:22:00,39.0,-99.9,-100.00,SSW,208,7.0,13.0,-999,-99.99,,,-99.99,,2013-02-19 14:22:00,
2013-02-19 09:33:00,39.0,-99.9,-100.00,SSW,208,7.0,13.0,-999,-99.99,,,-99.99,,2013-02-19 14:33:00,
2013-02-19 09:42:00,39.0,-99.9,-100.00,SSW,208,7.0,13.0,-999,-99.99,,,-99.99,,2013-02-19 14:42:00,
2013-02-19 09:52:00,43.0,-99.9,-100.00,SW,218,7.0,20.0,-999,-99.99,,,-99.99,,2013-02-19 14:52:00,
2013-02-19 10:22:00,43.0,-99.9,-100.00,SW,218,7.0,20.0,-999,-99.99,,,-99.99,,2013-02-19 15:22:00,
2013-02-19 10:32:00,43.0,-99.9,-100.00,SW,218,7.0,20.0,-999,-99.99,,,-99.99,,2013-02-19 15:32:00,
2013-02-19 10:42:00,43.0,-99.9,-100.00,SW,218,7.0,20.0,-999,-99.99,,,-99.99,,2013-02-19 15:42:00,
2013-02-19 10:52:00,44.0,-99.9,-100.00,SW,226,13.0,20.0,-999,-99.99,,,-99.99,,2013-02-19 15:52:00,
2013-02-19 11:22:00,44.0,-99.9,-100.00,SW,226,13.0,20.0,-999,-99.99,,,-99.99,,2013-02-19 16:22:00,
2013-02-19 11:32:00,44.0,-99.9,-100.00,SW,226,13.0,20.0,-999,-99.99,,,-99.99,,2013-02-19 16:32:00,
2013-02-19 11:42:00,44.0,-99.9,-100.00,SW,226,13.0,20.0,-999,-99.99,,,-99.99,,2013-02-19 16:42:00,
2013-02-19 11:52:00,45.0,-99.9,-100.00,SW,233,15.0,18.0,-999,-99.99,,,-99.99,,2013-02-19 16:52:00,
2013-02-19 12:22:00,45.0,-99.9,-100.00,SW,233,15.0,18.0,-999,-99.99,,,-99.99,,2013-02-19 17:22:00,
2013-02-19 12:32:00,45.0,-99.9,-100.00,SW,233,15.0,18.0,-999,-99.99,,,-99.99,,2013-02-19 17:32:00,
2013-02-19 12:42:00,45.0,-99.9,-100.00,SW,233,15.0,18.0,-999,-99.99,,,-99.99,,2013-02-19 17:42:00,
2013-02-19 12:52:00,44.0,-99.9,-100.00,SSW,213,3.0,12.0,-999,-99.99,,,-99.99,,2013-02-19 17:52:00,
2013-02-19 13:22:00,44.0,-99.9,-100.00,SSW,213,3.0,12.0,-999,-99.99,,,-99.99,,2013-02-19 18:22:00,
2013-02-19 13:32:00,44.0,-99.9,-100.00,SSW,213,3.0,12.0,-999,-99.99,,,-99.99,,2013-02-19 18:32:00,
2013-02-19 13:42:00,44.0,-99.9,-100.00,SSW,213,3.0,12.0,-999,-99.99,,,-99.99,,2013-02-19 18:42:00,
2013-02-19 13:52:00,42.0,-99.9,-100.00,SW,229,12.0,15.0,-999,-99.99,,,-99.99,,2013-02-19 18:52:00,
2013-02-19 14:22:00,42.0,-99.9,-100.00,SW,229,12.0,15.0,-999,-99.99,,,-99.99,,2013-02-19 19:22:00,
2013-02-19 14:32:00,42.0,-99.9,-100.00,SW,229,12.0,15.0,-999,-99.99,,,-99.99,,2013-02-19 19:32:00,
2013-02-19 14:42:00,42.0,-99.9,-100.00,SW,229,12.0,15.0,-999,-99.99,,,-99.99,,2013-02-19 19:42:00,
2013-02-19 14:52:00,42.0,-99.9,-100.00,SW,225,9.0,12.0,-999,-99.99,,,-99.99,,2013-02-19 19:52:00,
2013-02-19 15:22:00,42.0,-99.9,-100.00,SW,225,9.0,12.0,-999,-99.99,,,-99.99,,2013-02-19 20:22:00,
2013-02-19 15:32:00,42.0,-99.9,-100.00,SW,225,9.0,12.0,-999,-99.99,,,-99.99,,2013-02-19 20:32:00,
2013-02-19 15:42:00,42.0,-99.9,-100.00,SW,225,9.0,12.0,-999,-99.99,,,-99.99,,2013-02-19 20:42:00,
2013-02-19 15:52:00,44.0,-99.9,-100.00,SW,220,6.0,19.0,-999,-99.99,,,-99.99,,2013-02-19 20:52:00,
2013-02-19 16:22:00,44.0,-99.9,-100.00,SW,220,6.0,19.0,-999,-99.99,,,-99.99,,2013-02-19 21:22:00,
2013-02-19 16:32:00,44.0,-99.9,-100.00,SW,220,6.0,19.0,-999,-99.99,,,-99.99,,2013-02-19 21:32:00,
2013-02-19 16:42:00,44.0,-99.9,-100.00,SW,220,6.0,19.0,-999,-99.99,,,-99.99,,2013-02-19 21:42:00,
2013-02-19 16:52:00,42.0,-99.9,-100.00,West,259,13.0,18.0,-999,-99.99,,,-99.99,,2013-02-19 21:52:00,
2013-02-19 17:22:00,42.0,-99.9,-100.00,West,259,13.0,18.0,-999,-99.99,,,-99.99,,2013-02-19 22:22:00,
2013-02-19 17:32:00,42.0,-99.9,-100.00,West,259,13.0,18.0,-999,-99.99,,,-99.99,,2013-02-19 22:32:00,
2013-02-19 17:42:00,42.0,-99.9,-100.00,West,259,13.0,18.0,-999,-99.99,,,-99.99,,2013-02-19 22:42:00,
2013-02-19 17:52:00,43.0,-99.9,-100.00,SW,220,-999.0,8.0,-999,-99.99,,,-99.99,,2013-02-19 22:52:00,
2013-02-19 18:32:00,43.0,-99.9,-100.00,SW,220,-999.0,8.0,-999,-99.99,,,-99.99,,2013-02-19 23:32:00,
2013-02-19 18:42:00,43.0,-99.9,-100.00,SW,220,-999.0,8.0,-999,-99.99,,,-99.99,,2013-02-19 23:42:00,
2013-02-19 18:52:00,43.0,-99.9,-100.00,SW,216,-999.0,-999.0,-999,-99.99,,,-99.99,,2013-02-19 23:52:00,
2013-02-19 19:22:00,43.0,-99.9,-100.00,SW,216,-999.0,-999.0,-999,-99.99,,,-99.99,,2013-02-20 00:22:00,
2013-02-19 19:32:00,43.0,-99.9,-100.00,SW,216,-999.0,-999.0,-999,-99.99,,,-99.99,,2013-02-20 00:32:00,
2013-02-19 19:42:00,43.0,-99.9,-100.00,SW,216,-999.0,-999.0,-999,-99.99,,,-99.99,,2013-02-20 00:42:00,
2013-02-19 19:52:00,42.0,-99.9,-100.00,SW,216,-999.0,-999.0,-999,-99.99,,,-99.99,,2013-02-20 00:52:00,
2013-02-19 20:22:00,42.0,-99.9,-100.00,SW,216,-999.0,-999.0,-999,-99.99,,,-99.99,,2013-02-20 01:22:00,
2013-02-19 20:32:00,42.0,-99.9,-100.00,SW,216,-999.0,-999.0,-999,-99.99,,,-99.99,,2013-02-20 01:32:00,
2013-02-19 20:42:00,42.0,-99.9,-100.00,SW,216,-999.0,-999.0,-999,-99.99,,,-99.99,,2013-02-20 01:42:00,
2013-02-19 20:52:00,45.0,-99.9,-100.00,WNW,286,6.0,17.0,-999,-99.99,,,-99.99,,2013-02-20 01:52:00,
2013-02-19 21:22:00,45.0,-99.9,-100.00,WNW,286,6.0,17.0,-999,-99.99,,,-99.99,,2013-02-20 02:22:00,
2013-02-19 21:32:00,45.0,-99.9,-100.00,WNW,286,6.0,17.0,-999,-99.99,,,-99.99,,2013-02-20 02:32:00,
2013-02-19 21:42:00,45.0,-99.9,-100.00,WNW,286,6.0,17.0,-999,-99.99,,,-99.99,,2013-02-20 02:42:00,
2013-02-19 21:52:00,44.0,-99.9,-100.00,WNW,295,12.0,18.0,-999,-99.99,,,-99.99,,2013-02-20 02:52:00,
2013-02-19 22:22:00,44.0,-99.9,-100.00,WNW,295,12.0,18.0,-999,-99.99,,,-99.99,,2013-02-20 03:22:00,
2013-02-19 22:32:00,44.0,-99.9,-100.00,WNW,295,12.0,18.0,-999,-99.99,,,-99.99,,2013-02-20 03:32:00,
2013-02-19 22:42:00,44.0,-99.9,-100.00,WNW,295,12.0,18.0,-999,-99.99,,,-99.99,,2013-02-20 03:42:00,
2013-02-19 22:52:00,42.0,-99.9,-100.00,ESE,116,12.0,16.0,-999,-99.99,,,-99.99,,2013-02-20 03:52:00,
2013-02-19 23:22:00,42.0,-99.9,-100.00,ESE,116,12.0,16.0,-999,-99.99,,,-99.99,,2013-02-20 04:22:00,
2013-02-19 23:32:00,42.0,-99.9,-100.00,ESE,116,12.0,16.0,-999,-99.99,,,-99.99,,2013-02-20 04:32:00,
2013-02-19 23:42:00,42.0,-99.9,-100.00,ESE,116,12.0,16.0,-999,-99.99,,,-99.99,,2013-02-20 04:42:00,
2013-02-19 23:52:00,39.0,-99.9,-100.00,WNW,282,10.0,18.0,-999,-99.99,,,-99.99,,2013-02-20 04:52:00,